sim
Sign-in with your pilot id or email,
or register
Callsign
Passwort

Schedule Details

Flight Number: RYR34 (3)
Departure: Manchester Airport (EGCC) at 10:50
Arrival: Bratislava M. R. Stefanik Airport (LZIB) at 13:20
Route: Ryanair Passenger Schedule. Enter filed route here before submitting Pirep.

Weather Information
Getting current METAR information for EGCC 280320Z AUTO VRB01KT 9999 NCD 11/06 Q1036 NOSIG
Getting current METAR information for LZIB 280300Z 26004KT CAVOK 12/06 Q1025

Schedule Frequency

Route Map